Location: Broek
(53.2737°N, 5.9967°E)
Time: 23:00:13
(UTC+00:00)

Daily predictions for brighter satellites

Satellite Brightness Start Highest point End
(mag) Time Altitude Azimuth Time Altitude Azimuth Time Altitude Azimuth
Cosmos 2228 Rocket 3.8 17:19:21 10° NNW 17:23:49 62° W 17:28:13 10° S
Cosmos 1452 Rocket 4.0 17:21:22 10° NNW 17:26:21 40° NE 17:31:16 10° ESE
Cosmos 1470 2.7 17:23:36 10° S 17:27:06 50° E 17:30:39 10° NNE
Cosmos 2219 Rocket 4.3 17:24:35 10° NNW 17:27:06 13° N 17:29:38 10° NNE
Cosmos 1943 4.2 17:22:54 10° WSW 17:28:22 48° NW 17:33:54 10° NNE
Cosmos 1707 Rocket 4.3 17:24:19 10° NNW 17:28:36 58° W 17:32:49 10° S
Cosmos 2360 Rocket 4.2 17:25:56 10° NNW 17:28:55 14° NNE 17:31:53 10° NE
Cosmos 1862 Rocket 4.2 17:24:43 10° NNW 17:29:09 65° W 17:33:33 10° S
Cosmos 2056 Rocket 3.9 17:27:07 10° NNW 17:32:32 74° WSW 17:37:55 10° SSE
ACS3 Solar Sail 3.0 17:29:04 10° ESE 17:33:49 23° NE 17:38:31 10° N
Cosmos 1666 Rocket 3.7 17:32:37 10° SSW 17:36:56 80° WNW 17:41:16 10° N
Cosmos 2112 Rocket 4.1 17:32:34 10° S 17:37:49 61° ESE 17:43:06 10° NNE
SL-16 R/B 4.2 17:33:47 10° W 17:38:17 23° NNW 17:42:48 10° NNE
Okean 2 3.8 17:36:29 10° NNW 17:40:29 67° W 17:44:26 10° S
CZ-2C R/B 2.4 17:37:16 10° SSE 17:40:40 76° ENE 17:44:09 10° NNW
Cosmos 1470 Rocket 3.5 17:37:01 10° S 17:41:23 64° E 17:45:44 10° NNE
Cosmos 1766 4.0 17:38:11 10° SSW 17:41:48 54° WNW 17:45:27 10° N
COSMO-SKYMED 1 2.6 17:38:00 10° NNE 17:42:19 58° E 17:46:36 10° S
Kosmos-1783 2.3 17:42:45 10° NW 17:44:09 34° NE 17:45:01 19° E
Cosmos 1703 Rocket 3.5 17:40:18 10° N 17:44:40 66° ENE 17:48:58 10° SSE
Radarsat Rocket 3.9 17:41:38 10° SSE 17:47:28 88° ENE 17:53:28 10° NNW
Resurs 01 Rocket 3.0 17:45:27 11° ESE 17:48:21 20° ENE 17:51:32 10° NNE
SL-8 R/B 4.3 17:44:24 10° WSW 17:49:00 48° S 17:53:12 12° ESE
Okean 1-7 3.3 17:45:50 10° NNW 17:50:03 71° W 17:54:12 10° S
Cosmos 1408 3.3 17:47:52 10° NNW 17:50:07 36° W 17:52:20 10° SSW
Helios 1B rocket 2.3 17:46:46 10° SSE 17:50:30 56° ENE 17:54:15 10° N
ADEOS 4.0 17:46:01 10° SE 17:50:50 40° ENE 17:55:42 10° N
IGS 5A 4.3 17:47:09 10° S 17:51:07 52° W 17:55:06 10° NNW
Meteor 2-10 Rocket 4.3 17:46:18 10° SSE 17:51:25 35° E 17:56:37 10° NNE
YAOGAN 1 2.5 17:47:15 10° SSE 17:51:29 67° ENE 17:55:46 10° N
Cosmos 1869 Rocket 4.3 17:49:04 10° SSE 17:52:50 29° E 17:56:41 10° NNE
Cosmos 220 Rocket 4.3 17:55:02 10° S 17:59:08 44° ESE 18:03:15 10° NE
Cosmos 1331 Rocket 4.0 17:53:59 10° NNW 17:59:17 64° ENE 18:04:32 10° SE
USA 234 3.4 17:53:49 13° E 17:59:49 73° NNE 18:06:21 10° WNW
Cosmos 1933 Rocket 3.7 17:55:51 10° S 18:00:05 52° E 18:04:22 10° NNE
Cosmos 2322 Rocket 3.9 17:57:10 10° NNW 18:01:04 18° NNE 18:04:27 12° ENE
Cosmos 2333 Rocket 4.0 17:57:38 10° NNW 18:01:25 18° NNE 18:04:57 11° ENE
YAOGAN 11 4.0 17:57:45 10° NNE 18:02:04 64° ESE 18:06:24 10° S
Cosmos 921 Rocket 3.7 17:58:20 10° SSE 18:02:21 34° ESE 18:06:25 10° NE
Cosmos 2237 Rocket 4.5 18:01:14 10° NW 18:04:01 14° N 18:06:49 10° NNE
Cosmos 2279 Rocket 4.1 17:59:24 10° SSW 18:05:36 83° W 18:11:50 10° N
CZ-4B R/B 4.0 18:03:49 14° ESE 18:07:27 30° ENE 18:12:02 10° N
NOSS 8 (E) 4.5 18:04:57 10° SSW 18:08:44 57° SE 18:10:54 18° ENE
Cosmos 2242 Rocket 3.9 18:04:31 10° N 18:08:52 44° ENE 18:13:08 10° SE
NOSS 8 (A) 4.3 18:07:08 10° NW 18:10:01 69° SW 18:12:48 14° SE
Cosmos 1174 4.0 18:08:08 10° NW 18:11:07 46° SW 18:13:58 10° SSE
Cosmos 1346 Rocket 3.3 18:07:39 10° SSW 18:11:27 60° WNW 18:15:16 10° N
NOAA 6 4.5 18:07:35 10° S 18:12:43 66° WSW 18:17:53 10° NNW
ARIANE 6 FM1 Upper Stage 4.2 18:09:52 10° NW 18:13:35 27° N 18:16:21 15° ENE
Cosmos 1302 Rocket 4.4 18:08:42 10° NNW 18:13:41 44° NE 18:17:17 18° ESE
Cosmos 1932 4.5 18:07:46 10° SSW 18:13:51 58° SE 18:19:57 10° NE
Meteor 1-31 Rocket 4.3 18:11:15 10° SSW 18:14:37 37° W 18:18:02 10° NNW
Okean O Rocket 3.0 18:15:20 18° ENE 18:16:09 19° ENE 18:19:14 10° NNE
SAR-Lupe-2 3.7 18:14:19 13° SE 18:17:25 50° ENE 18:20:54 10° N
CZ-4B DEB 4.3 18:13:34 10° SE 18:18:52 56° ENE 18:24:11 10° N
Cosmos 1680 Rocket 4.1 18:16:34 10° SW 18:21:49 60° WNW 18:27:06 10° NNE
Cosmos 1818 3.7 18:17:31 10° NW 18:22:58 61° NE 18:26:27 22° ESE
Lacrosse 5 rocket 2.5 18:21:23 10° S 18:23:53 20° SE 18:23:53 20° SE
Helios 1A 3.8 18:20:54 10° NE 18:24:24 26° E 18:24:38 26° E
BREEZE-M DEB (TANK) 3.8 18:21:58 10° WSW 18:24:40 49° SSE 18:27:20 24° E
Cosmos 1655 Rocket 4.0 18:18:58 10° N 18:25:24 76° ENE 18:31:45 10° SSE
CZ-4B R/B 3.4 18:23:08 20° SE 18:25:42 43° ENE 18:29:42 10° N
Resurs 1-3 3.5 18:22:33 10° SSE 18:26:53 81° ENE 18:31:15 10° NNW
CZ-4C R/B 2.1 18:22:37 10° SSW 18:27:01 50° SE 18:32:07 12° NE
Cosmos 1980 Rocket 2.1 18:21:38 10° NNW 18:27:15 70° NE 18:31:38 17° SE
USA 281 4.0 18:21:34 10° NNE 18:27:55 53° NW 18:34:15 10° SW
Cosmos 2082 Rocket 3.4 18:24:17 10° SSE 18:27:10 20° ESE 18:27:10 20° ESE
Cosmos 1825 2.0 18:26:06 10° N 18:29:15 45° ENE 18:30:01 37° ESE
Cosmos 1833 Rocket 2.6 18:23:46 10° SSW 18:29:21 67° ESE 18:34:57 10° NE
SPOT 1/Viking Rocket 3.4 18:24:55 10° SSE 18:30:02 81° ENE 18:35:12 10° NNW
SKYMED 2 4.4 18:26:07 10° N 18:30:23 53° WNW 18:34:37 10° SW
CSL-04 Rocket 4.0 18:29:43 23° ESE 18:32:34 41° ENE 18:37:33 10° N
PAYLOAD B 4.3 18:27:58 12° SE 18:32:59 57° ENE 18:38:27 10° N
ATLAS CENTAUR R/B 1.9 18:32:42 10° NW 18:36:31 41° NE 18:37:42 33° ENE
Cosmos 1703 3.7 18:34:52 10° NNW 18:38:26 56° W 18:42:00 10° S
Cosmos 1300 2.3 18:36:08 10° S 18:39:35 86° E 18:43:04 10° NNE
Terra 3.7 18:41:19 14° NE 18:41:19 14° NE 18:43:23 10° NNE
Meteor 1-24 Rocket 3.7 18:35:41 10° NNW 18:41:15 84° WSW 18:46:37 10° S
Cosmos 1048 Rocket 3.9 18:37:31 10° SSW 18:42:47 75° ESE 18:48:01 10° NNE
Cosmos 1758 3.0 18:39:08 10° S 18:42:56 71° E 18:46:48 10° NNE
ARGOS Delta rocket 3.8 18:40:19 10° S 18:44:42 73° W 18:49:07 10° NNW
Cosmos 1892 2.3 18:41:42 10° N 18:45:10 71° ENE 18:46:07 44° SSE
SL-16 R/B 3.0 18:40:11 10° NNW 18:45:20 34° NE 18:47:08 28° ENE
Cosmos 1733 Rocket 3.5 18:45:34 37° E 18:45:34 37° E 18:49:26 10° NNE
CZ-4 R/B 1.2 18:43:52 25° SSE 18:46:09 72° ENE 18:50:12 10° N
Cosmos 2344 4.4 18:39:13 10° NW 18:47:13 63° SW 18:58:06 10° SSE
Cosmos 1461 4.5 18:45:31 10° W 18:48:48 28° NNW 18:51:49 12° NNE
Meteor 2-5 Rocket 3.9 18:43:51 10° NNW 18:49:40 75° W 18:55:18 10° S
SJ-6B 2.8 18:47:53 14° S 18:50:59 70° WSW 18:54:44 10° NNW
Lacrosse 5 2.2 18:48:02 10° W 18:53:07 64° NNW 18:55:40 29° ENE
USA 186 2.5 18:54:14 39° NNE 18:54:14 39° NNE 18:56:24 10° N
CZ-4B R/B 3.7 18:51:01 10° S 18:56:03 73° WSW 19:01:16 10° NNW
SL-08 R/B 4.5 18:52:00 10° N 18:58:01 56° ENE 19:00:59 30° SE
Cosmos 1697 Rocket 3.9 18:53:00 10° NW 18:58:18 42° WSW 19:03:34 10° S
ATLAS 2AS CENTAUR R/B 4.3 18:52:56 10° WNW 18:58:38 30° WSW 19:04:13 10° S
Cosmos 2278 4.1 18:55:18 10° NNW 19:00:43 44° NE 19:02:06 38° E
SPOT 5 3.8 19:01:33 27° NE 19:01:33 27° NE 19:04:44 10° N
SL-08 R/B 3.2 18:57:37 10° NNE 19:02:29 81° ESE 19:07:13 10° SSW
Meteor PRIRODA 3.9 19:03:29 36° SSW 19:04:32 55° W 19:07:45 10° NNW
Cosmos 2369 3.6 18:59:21 10° NNW 19:05:02 90° N 19:07:42 33° SSE
USA 267 3.6 19:04:13 35° ESE 19:05:48 40° SE 19:11:53 10° SSW
CARTOSAT-1 3.4 19:06:55 43° SSE 19:08:17 88° ENE 19:12:34 10° NNW
Cosmos 468 4.4 19:03:28 10° SSW 19:08:44 84° ESE 19:14:01 10° NNE
CSL-04 Debris 4.0 19:09:28 32° SSE 19:12:08 81° ENE 19:17:34 10° NNW
Cosmos 1674 Rocket 3.5 19:08:03 10° N 19:12:09 60° ENE 19:12:09 60° ENE
Cosmos 2219 Rocket 3.6 19:08:57 10° NNW 19:13:18 22° NNE 19:14:16 21° NE
Cosmos 2360 Rocket 3.1 19:09:50 10° NNW 19:14:49 31° NE 19:15:29 30° NE
Cosmos 1025 Rocket 4.3 19:10:59 10° N 19:13:24 26° NNE 19:13:24 26° NNE
Cosmos 2221 Rocket 3.7 19:10:48 10° N 19:14:45 54° NE 19:14:45 54° NE
ACS3 Solar Sail 1.8 19:12:32 22° SSE 19:16:58 85° ENE 19:23:19 10° NNW
Okean-O 3.5 19:21:40 35° NNE 19:21:40 35° NNE 19:24:47 10° N
Cosmos 1328 4.4 19:16:59 10° N 19:19:41 44° N 19:19:41 44° N
Cosmos 1745 Rocket 4.1 19:14:36 10° N 19:20:51 53° ENE 19:22:00 47° ESE
Resurs 01 Rocket 1.8 19:22:55 41° S 19:24:20 68° WSW 19:28:44 10° NNW
Feng Yun 1-1 Rocket 4.3 19:21:29 30° SSE 19:24:39 86° WSW 19:30:32 10° NNW
Meteor 1-12 Rocket 4.5 19:24:23 10° SSW 19:30:06 72° WNW 19:35:58 10° N
Cosmos 1378 Rocket 3.6 19:26:23 10° NNW 19:30:49 77° W 19:31:14 69° SSW
MOS 1 Rocket 3.8 19:36:59 53° NE 19:36:59 53° NE 19:41:32 10° N
USA 234 3.4 19:41:10 48° SSE 19:42:57 66° SSW 19:49:29 10° WNW
Cosmos 2322 Rocket 2.5 19:40:57 10° NNW 19:46:14 50° NE 19:46:14 50° NE
Cosmos 2333 Rocket 2.7 19:41:45 10° NNW 19:46:57 44° NE 19:46:57 44° NE
CZ-4B R/B 3.6 19:45:42 34° SSW 19:47:46 56° WSW 19:53:01 10° NNW
Cosmos 2237 Rocket 4.3 19:47:20 10° NNW 19:50:37 15° NNE 19:51:56 14° NNE
Okean O Rocket 2.1 19:52:41 57° NW 19:52:41 57° NW 19:56:19 10° NNW
Ariane Rocket 4.4 19:55:13 27° NNE 19:55:13 27° NNE 19:58:06 10° N
ARIANE 6 FM1 Upper Stage 3.8 19:49:27 10° NW 19:52:37 40° NNW 19:52:37 40° NNW
MetOp-B 4.2 19:59:54 69° N 19:59:54 69° N 20:04:41 10° NNW
Helios 1A 4.2 19:55:41 10° N 19:59:32 40° WNW 20:00:38 33° WSW
Cosmos 1553 Rocket 4.0 19:57:42 29° SSW 20:01:02 78° W 20:07:09 10° N
ERS-1 Rocket 3.8 20:03:14 41° N 20:03:14 41° N 20:06:40 10° N
Lacrosse 5 rocket 3.9 19:58:08 10° WSW 19:58:30 12° WSW 19:58:30 12° WSW
Meteor 1-11 4.5 20:00:30 10° N 20:05:24 60° NNE 20:05:24 60° NNE
Cosmos 1709 Rocket 3.9 20:00:01 10° N 20:06:04 73° NE 20:06:04 73° NE
Cosmos 1980 Rocket 4.0 20:06:15 10° NW 20:10:47 26° WSW 20:13:25 18° SW
Cosmos 2082 Rocket 3.3 20:06:20 10° SW 20:17:29 11° NNE 20:17:39 10° NNE
Cosmos 1833 Rocket 4.3 20:08:38 10° WSW 20:13:42 33° NW 20:18:47 10° NNE
ATLAS CENTAUR R/B 3.2 20:09:58 10° NW 20:12:16 28° WNW 20:12:16 28° WNW
CZ-4C R/B 2.9 20:10:38 10° WSW 20:15:27 49° NNW 20:17:12 37° NNE
Terra 3.3 20:20:00 30° N 20:20:00 30° N 20:22:28 10° N
MOS 1 4.5 20:18:14 67° W 20:18:14 67° W 20:23:45 10° NNW
CZ-4 R/B 4.2 20:19:19 12° WSW 20:21:07 15° W 20:23:28 10° NW
COSMOS 2428 4.2 20:16:39 10° NNW 20:20:43 27° NNE 20:20:43 27° NNE
SL-16 R/B 2.7 20:24:13 10° NW 20:28:59 56° WNW 20:28:59 56° WNW
Lacrosse 5 3.1 20:31:31 10° WNW 20:34:52 39° NW 20:34:52 39° NW
USA 267 3.9 20:51:36 45° WSW 20:51:36 45° WSW 20:55:54 10° WSW
Cosmos 2219 Rocket 3.5 20:52:38 10° NNW 20:55:57 36° NNW 20:55:57 36° NNW
Cosmos 2360 Rocket 3.4 20:53:42 10° NW 20:57:14 40° NW 20:57:14 40° NW
ACS3 Solar Sail 3.9 20:57:40 13° SW 21:01:39 22° W 21:06:27 10° NW
SL-16 R/B 4.4 21:07:37 10° NNW 21:10:54 17° NNE 21:10:54 17° NNE
Cosmos 2322 Rocket 4.0 21:25:15 10° NW 21:28:02 26° WNW 21:28:02 26° WNW
Cosmos 2333 Rocket 4.0 21:26:10 10° NW 21:28:58 27° WNW 21:28:58 27° WNW
Cosmos 2237 Rocket 4.2 21:31:14 10° NNW 21:33:43 23° N 21:33:43 23° N
Cosmos 2082 Rocket 4.5 21:59:17 19° N 21:59:17 19° N 22:01:31 10° NNE
CZ-4C R/B 4.4 22:00:04 10° WNW 22:02:17 22° NW 22:02:17 22° NW
CENTAUR R/B 4.3 23:21:59 31° NNE 23:21:59 31° NNE 23:26:42 10° NE
